Погода в Новом Афоне

Абхазия     43˚05′06″N   40˚48′57″E
темп.,
°C
ветер,
м/с
пор.,
м/с
влажн.,
%
обл.,
%
осадки,
мм/ч
давл.,
гПа
погр.,
м
6 декабря, вс
вс600:00+13˚ссв33490 0.0 1021125
03:00+13˚всв22450 0.0 1021152
06:00+12˚в22500 0.0 1020310
09:00+12˚всв22470 0.0 1020188
12:00+12˚ююв22520 0.0 1019236
15:00+12˚ююв11550 0.0 1019188
18:00+13˚св33580 0.0 1020171
21:00+13˚в45520 0.0 1020407
7 декабря, пн
пн700:00+12˚в34510 0.0 1020339
03:00+12˚в34500 0.0 1021333
06:00+11˚в33490 0.0 1020290
09:00+11˚в33460 0.0 1021313
12:00+11˚юв23440 0.0 1019281
15:00+12˚ссв22440 0.0 1019157
18:00+13˚всв35450 0.0 1020482
21:00+12˚вюв564911 0.0 1020459
8 декабря, вт
вт800:00+12˚вюв564927 0.0 1020424
03:00+11˚вюв554813 0.0 1020371
06:00+11˚вюв554617 0.0 1020342
09:00+11˚вюв45448 0.0 1020333
12:00+12˚юв55460 0.0 1019314
15:00+13˚в334143 0.0 1018253
18:00+14˚в3441100 0.0 1020281
21:00+14˚в3544100 0.0 1020447
9 декабря, ср
ср900:00+13˚вюв555099 0.0 1020351
03:00+13˚юв334798 0.0 1021213
06:00+13˚юв445076 0.0 1021389
09:00+12˚вюв555288 0.0 1022416
12:00+12˚юв91062100 0.1 1022691
15:00+11˚в6864100 1.8 1022851
18:00+11˚вюв6670100 0.8 1023549
21:00+11˚в4579100 1.4 1024329
10 декабря, чт
чт1000:00+12˚в3576100 0.2 1024400
03:00+12˚юв337288 0.3 1024329
06:00+12˚в33742 0.0 1024266
09:00+12˚в22701 0.0 1024230
12:00+13˚ююв12610 0.0 1022131
15:00+13˚сз01600 0.0 102189
18:00+14˚ссв23630 0.0 1022106
21:00+14˚всв33620 0.0 1021122